Find Starlink 1302

NORAD ID: 45375 Int'l Des: 2020-019 Owner: SPXS Country: US Constellation: starlink operational
LEOCIRCULAR

現在のビュー

3D地球を読み込み中...

About Starlink 1302

Starlink 1302 (NORAD 45375) is a starlink constellation satellite (v1.0) launched Mar 18, 2020 by SPXS of US. It operates in LEO, CIRCULAR orbit with a mass of 260.00 kg.

Starlink 1302について

説明を読み込み中...

次回通過

Passes for default location (London). Set your location on the main map for personalized predictions.

高度履歴

Loading altitude history...

軌道要素

1 45375U 20019R 26168.83983192 .00044037 00000-0 38762-3 0 9999
2 45375 53.0453 22.4470 0004236 99.7269 260.4225 15.68328601345599
Epoch: Jun 17, 2026 • Age: 13 hours

現在のステータス

高度 366.1 km
速度 7.70 km/s
衛星直下点 45.56°N, 33.12°E
打ち上げ日 Mar 18, 2020
運用期間 6.2 years
タイプ internet

技術仕様

分類 Payload
質量 260.00 kg
乾燥質量 248.00 kg
総質量 260.00 kg
長さ 0.20 m
直径 2.80 m
スパン 9.00 m
形状 Box + pan
製造者 SPXS
バスタイプ Starlink
フェーズステータス In Orbit
所有者/国 SPXS/US

Most Searched